CZ-2D DEB, 44619

Orbit data source: Space-Track

CZ-2D DEB, 44619 is space debris in SSO originally from a launch on Sat, 02 Jun 2018 UTC launched from the Jiuquan Satellite Launch Center, China (JSC). Debris objects in space refer to the collection of defunct objects orbiting the Earth. Examples of debris include non-operational satellites, rocket bodies, and fragments generated from explosions, collisions, or faulty payload assembly.

Loading next visibility...
Identifier
44619, 2018-048F
Orbit
SSO
Country
Flag of CNCN / PRC
Related business
Manufacturer
CALT
Mission
Spacecraft
Bus & Motor
Unknown
Mass
1 kg wet, 1 kg dry
Launch date (UTC)
2018-06-02 (7 years ago)
Launch vehicle
Unknown
Launch site
Jiuquan Satellite Launch Center, China (JSC)
Object type
Payload
Rocket body
Debris
Shape & HBR
Cone, 0.1 m
Radar Cross Section
0.025 m², Small (<0.1 m²)

Expand to show TLE details & history
Last TLE update: 12 hours ago

TLE from 12 hours ago
0 CZ-2D DEB
1 44619U 18048F   25258.44969890  .00009682  00000-0  78510-3 0  9995
2 44619  98.2953  81.5984 0014848  51.0365 309.2177 14.99826409390409
Epoch: 2025-09-15T10:47Z
TLE epoch observation values (Epoch: 2025-09-15T10:47:33.984Z)
Latitude
-0.00005°
Longitude
-74.94738°
Altitude
563.956 km
Speed
7.583 km/s
True Right ascension
05h 26m 23s
True Declination
0° 00' 00"
Sunlit
Object was in daylight at epoch
Visualization orbit readout
Latitude
Unknown
Longitude
Unknown
Altitude
Unknown
Speed
Unknown
Apparent Right ascension
Unknown
Apparent Declination
Unknown
Sunlit
N/A
Visualization observer readout
Local Sidereal Time
15:10:50
Azimuth
Unknown
Elevation
Unknown
Doppler factor
Unknown
Orbital elements
Apogee altitude
574.773 km
Perigee altitude
554.157 km
Semi-major axis
6,942.602 km
Eccentricity
0.00148
Inclination
98.2953°
RAAN
81.5984°
Arg. of periapsis
51.0365°
True anomaly
309.08573°
Mean anomaly
309.2177°
Eccentric anomaly
309.15173°
Mean motion
3.75197 °/min
Orbital period
95.95 mins
BSTAR
0.0007851
Loading maneuver chart data...
Computing Atmospheric mass density...
Loading historical data...
Loading historical data...
Loading historical data...
Loading historical data...
Loading historical data...
Loading historical data...
Loading historical data...
Other satellites on launch #48 in the year 2018 (2018-06-02 UTC)

Documentation

Showing up to 5 results
|